Theta_e
317 320 324 328 330 336 345 343 337 328 328 336 331 336 336 336 329 330 329 324 322 319 318 316 314 314 314 313 313 313 314 314 315 317 319 320 322 324
314 317 320 323 328 329 334 338 339 333 328 334 327 333 336 332 329 329 329 320 319 317 316 313 312 312 311 311 312 313 313 314 314 316 317 318 319 320
310 313 316 319 321 324 327 336 336 333 327 332 325 333 333 329 323 326 319 315 314 315 314 313 310 310 310 311 312 312 312 312 315 315 315 316 317 319
303 307 312 315 320 324 325 327 332 332 330 325 318 321 321 323 317 318 317 317 319 314 314 311 310 309 310 312 312 311 311 313 312 313 313 315 315 317
297 302 306 313 316 320 321 326 328 326 321 313 313 316 318 318 315 318 319 319 318 314 312 311 311 310 312 314 312 312 312 310 310 310 311 311 312 313
298 298 301 308 313 318 319 322 323 320 317 315 313 313 315 317 319 315 314 316 314 313 313 311 310 311 313 315 315 314 312 309 309 309 309 309 308 309
297 299 302 307 311 315 317 318 321 319 314 313 313 312 313 318 317 317 313 313 314 316 311 310 311 311 312 314 317 313 309 308 308 308 309 308 306 306
297 301 305 307 311 311 312 314 321 318 313 312 312 310 315 318 317 313 310 309 305 314 313 312 317 314 316 317 313 308 306 305 305 305 306 307 307 306
297 298 304 311 312 316 316 313 314 316 316 314 313 311 317 318 316 310 309 308 308 313 312 309 314 311 316 314 308 307 306 305 304 304 304 305 306 305
296 298 302 311 314 314 320 316 320 320 318 318 318 316 319 316 316 311 310 312 317 313 314 306 314 312 317 317 307 307 306 305 304 304 304 303 303 303
295 297 299 311 309 305 312 312 312 306 307 305 303 303 306 308 312 313 312 311 309 310 313 310 311 311 313 313 310 307 305 304 305 304 304 303 303 303
293 296 298 303 305 303 310 308 303 303 304 307 306 305 306 306 308 317 314 310 309 309 314 307 309 310 307 313 313 311 311 305 305 303 303 303 303 308
290 293 296 298 298 298 302 302 300 301 301 302 302 300 301 302 304 309 307 309 310 308 310 311 309 309 308 308 311 312 313 311 311 309 301 302 302 304
291 293 295 295 296 297 298 298 299 301 300 299 300 300 300 300 304 305 309 310 312 309 309 311 308 307 306 305 305 311 311 312 312 311 312 309 302 302
295 295 294 294 295 296 297 297 299 300 299 299 299 300 301 302 304 305 307 307 308 308 308 309 308 307 305 303 303 305 305 308 311 312 313 312 312 313
295 296 296 296 296 295 295 296 298 299 299 298 299 300 302 301 301 304 302 305 306 305 308 308 308 308 305 304 304 303 306 304 312 313 315 314 314 316
294 295 294 294 294 295 296 297 298 298 297 298 297 298 299 300 300 302 303 303 300 300 302 305 309 308 307 306 302 304 304 307 311 312 310 310 312 314
295 293 292 292 292 293 294 295 298 297 298 298 298 299 298 298 299 299 300 301 298 299 300 302 302 302 303 305 307 304 305 309 310 310 310 307 309 313
291 290 290 292 292 292 294 295 295 296 299 299 298 298 298 298 296 297 297 297 297 298 299 301 300 299 296 295 304 303 304 306 308 308 307 304 304 310
290 289 289 290 290 290 291 292 294 295 295 296 297 297 297 297 296 296 296 296 296 297 298 299 299 299 297 297 298 303 298 306 308 306 304 304 305 299
290 289 289 289 289 290 291 291 292 292 293 294 294 295 295 295 295 295 295 289 291 296 295 297 300 291 302 303 298 300 306 298 303 306 302 301 301 304
291 289 289 289 289 289 289 290 290 291 292 293 293 294 294 294 294 294 294 293 294 296 296 298 300 300 300 299 298 301 305 300 297 297 297 296 297 297
292 290 289 289 289 289 289 289 289 289 291 292 292 293 293 292 293 293 294 294 294 295 295 297 298 300 299 299 298 301 302 302 299 298 301 296 296 296
Wind_Speed
16 17 16 13 13 13 13 13 14 13 11 11 9 11 10 8 13 12 12 14 13 11 10 10 7 6 7 9 11 12 12 12 12 12 12 13 13 14
15 18 17 14 15 12 15 15 14 12 11 9 11 10 11 8 13 10 11 18 15 11 11 10 8 7 8 10 11 12 11 11 11 10 10 12 13 14
20 21 22 20 17 15 13 14 13 9 13 10 2 7 8 11 9 9 12 10 9 14 14 12 10 8 10 11 11 11 10 8 7 7 8 10 12 15
21 23 24 16 21 18 15 18 11 10 10 13 4 8 8 10 10 8 8 8 10 18 16 14 10 8 9 10 10 9 8 5 3 5 7 8 10 13
19 22 21 23 22 17 16 16 15 11 9 4 5 5 8 8 9 6 6 7 6 19 14 12 11 9 12 10 8 8 7 3 1 3 5 6 7 10
22 21 23 23 25 22 17 17 13 11 11 11 10 11 11 11 11 11 8 8 7 10 11 8 11 13 14 13 10 7 3 2 3 4 4 5 6 8
23 25 24 27 35 29 16 17 15 12 11 13 12 11 13 16 16 13 12 9 8 7 6 7 7 7 10 13 10 8 5 1 2 4 6 5 5 6
21 22 23 32 31 34 34 30 23 16 16 13 14 16 18 15 14 12 9 9 7 5 4 7 7 7 7 10 12 14 10 5 1 2 5 5 5 5
23 21 23 19 25 22 25 28 29 27 27 20 21 18 18 17 16 14 11 9 6 8 6 9 8 8 7 8 15 13 11 7 5 6 6 6 6 6
23 21 25 19 19 18 18 15 22 18 19 13 16 18 17 17 16 13 11 10 7 9 8 6 5 6 5 4 15 13 10 9 7 8 8 8 6 7
22 21 22 16 18 16 15 19 7 7 13 21 20 13 15 16 13 11 12 11 10 9 9 6 6 5 6 6 9 13 14 14 12 11 11 10 9 8
21 23 33 21 15 11 12 9 12 9 12 13 14 13 14 13 13 4 9 10 8 7 12 6 6 5 6 7 7 9 9 15 12 13 13 12 10 6
17 19 19 28 21 19 15 12 14 16 18 12 11 13 10 8 7 7 7 5 2 4 4 4 4 3 4 1 4 6 5 3 8 10 14 14 10 10
16 17 20 32 28 24 20 22 23 19 12 10 10 9 9 3 3 5 5 6 5 5 5 4 3 2 3 4 4 3 2 3 5 5 5 4 11 11
15 19 26 28 28 22 28 25 18 11 11 10 8 8 6 4 6 2 4 4 4 3 4 4 3 3 3 4 5 6 4 6 6 5 4 4 5 7
19 14 18 17 19 19 17 15 11 9 8 8 6 7 5 3 2 1 1 2 2 3 3 4 5 6 4 4 6 5 7 6 2 2 3 5 2 4
12 10 12 11 11 10 8 8 7 8 8 7 5 5 4 1 4 2 2 3 3 3 5 6 5 4 4 4 6 5 6 5 5 4 6 6 6 4
7 9 10 10 11 11 9 8 6 9 6 5 4 4 3 2 3 1 1 2 1 3 3 3 4 4 5 8 11 4 4 5 1 5 5 5 7 7
10 10 10 9 9 10 9 8 7 7 7 5 5 4 3 5 1 1 2 2 3 1 0 0 1 2 4 4 2 5 3 3 4 4 4 4 5 6
10 10 10 10 9 8 8 9 8 7 7 4 2 2 2 1 1 2 0 1 1 1 1 2 3 3 2 3 2 4 3 5 3 3 4 4 6 2
10 10 9 9 9 8 8 7 7 7 6 5 4 4 5 4 4 4 2 1 2 1 3 3 1 2 5 3 6 4 2 7 6 2 3 5 4 2
8 9 10 9 8 9 8 8 8 7 6 5 5 5 5 4 4 3 3 4 3 3 3 4 2 3 4 4 7 6 3 3 7 9 6 1 1 3
7 7 8 9 8 9 9 8 7 8 8 7 5 5 4 3 2 3 3 3 4 3 4 4 3 5 4 5 7 6 5 3 4 4 2 3 3 5
Wind_Direction
284 281 276 263 258 269 266 242 236 248 241 209 205 213 232 189 136 180 162 164 170 169 191 191 197 217 248 270 275 280 284 288 293 296 301 311 317 319
291 286 286 277 268 267 268 258 235 240 258 263 200 202 209 180 156 171 164 160 168 183 205 211 212 229 251 260 261 264 270 275 282 291 303 308 314 318
285 281 275 271 270 268 264 262 230 237 253 248 310 172 161 173 161 160 140 164 171 184 206 211 215 228 245 252 258 260 255 267 284 304 312 311 322 327
289 277 278 275 269 256 257 253 237 223 229 236 181 169 174 161 161 173 174 181 189 187 198 199 205 214 250 252 247 245 236 230 266 296 315 320 330 330
292 288 270 274 270 263 253 245 234 219 207 167 177 179 169 163 160 191 181 194 198 167 186 195 202 203 234 238 218 219 217 215 279 324 330 337 340 335
285 277 276 262 266 266 254 244 226 214 197 195 189 172 179 177 176 181 182 206 193 180 194 199 189 208 225 228 216 212 213 316 325 313 321 332 343 341
281 274 265 257 255 261 259 251 221 211 198 198 191 181 176 183 188 184 184 187 205 191 165 192 182 208 216 227 215 167 142 141 323 323 320 315 317 336
298 288 268 259 250 251 257 242 247 201 198 189 187 194 188 181 175 178 171 176 177 195 202 220 208 226 216 213 150 152 150 153 178 318 295 303 317 331
302 294 287 253 240 248 236 237 244 202 198 194 190 193 181 180 169 175 173 171 182 146 172 215 200 222 229 129 154 161 163 183 229 269 293 294 294 303
308 304 301 254 249 241 248 242 226 211 211 202 216 187 179 166 169 167 165 159 169 159 183 221 215 216 194 145 169 168 172 200 229 255 270 270 275 277
324 321 322 261 245 232 250 263 153 74 81 79 64 18 143 137 156 155 164 170 179 192 175 218 201 211 218 216 160 174 193 209 224 233 241 243 245 262
335 345 347 304 274 182 231 134 113 109 108 95 96 59 15 71 50 95 161 170 188 177 158 186 210 208 230 216 171 180 212 218 214 230 231 227 220 251
348 354 360 8 74 64 97 108 112 111 91 92 89 89 67 10 24 46 26 14 132 94 91 207 212 193 234 219 212 225 237 136 221 224 225 230 212 225
356 0 4 12 30 58 75 81 87 89 89 81 75 74 91 67 39 15 27 16 56 67 92 328 268 248 266 276 270 275 284 308 282 289 311 221 198 224
358 2 14 14 18 27 43 49 59 67 83 78 82 84 82 78 74 36 90 41 33 58 172 203 272 229 210 255 290 303 331 298 287 242 224 209 205 224
355 1 8 18 31 39 37 38 41 52 65 84 82 89 87 46 94 135 99 202 194 161 172 203 212 233 224 222 255 285 291 274 253 271 294 277 303 266
347 3 6 11 16 30 37 43 59 56 68 60 66 77 84 122 102 76 254 185 197 185 178 175 203 249 270 263 257 256 297 293 5 3 329 304 295 282
6 8 11 6 9 10 23 33 36 51 63 71 60 74 92 100 79 36 323 269 236 173 177 152 195 222 241 232 226 262 284 285 317 336 318 307 306 307
7 8 11 10 7 3 6 12 19 22 31 43 55 53 52 69 21 185 236 226 207 197 158 49 306 262 273 299 120 232 238 276 350 341 328 324 307 335
10 4 3 3 3 0 359 0 7 10 15 16 59 62 38 80 215 246 182 354 351 7 315 227 246 234 272 322 332 319 173 302 310 327 327 308 297 307
5 1 358 358 354 346 349 352 1 356 341 350 6 359 359 8 5 4 70 359 327 272 303 250 71 189 275 315 279 267 122 26 36 2 340 308 314 284
8 1 354 352 350 344 347 351 357 341 338 342 360 5 4 349 336 337 356 4 340 318 274 279 309 301 296 255 273 247 219 118 91 94 89 242 307 288
26 13 354 346 348 345 347 348 345 334 337 341 352 352 322 300 338 302 308 332 318 283 345 330 322 333 290 272 278 280 293 132 170 201 197 32 345 305